This is the latest recevied weather packets stored in our database for station/object K5YNC. If no packets are shown the sender has not sent any weather packets the latest 10 day(s).
| Time | Temp. | Humidity | Pressure | Rain* | Wind** | Luminosity | Snow |
|---|---|---|---|---|---|---|---|
| 1777841851 | 27.22° C | 34% | 1018.3 hPa | 0 mm | - | 642 W/m² | - |
| 1777841548 | 27.78° C | 35% | 1018.4 hPa | 0 mm | - | 653 W/m² | - |
| 1777841244 | 26.67° C | 35% | 1018.4 hPa | 0 mm | - | 667 W/m² | - |
| 1777840942 | 27.22° C | 34% | 1018.5 hPa | 0 mm | - | 186 W/m² | - |
| 1777840639 | 27.22° C | 35% | 1018.7 hPa | 0 mm | - | 685 W/m² | - |
| 1777840337 | 27.78° C | 37% | 1018.8 hPa | 0 mm | - | 694 W/m² | - |
| 1777840034 | 27.22° C | 35% | 1018.9 hPa | 0 mm | - | 705 W/m² | - |
| 1777839732 | 27.22° C | 35% | 1018.9 hPa | 0 mm | - | 710 W/m² | - |
| 1777839429 | 27.22° C | 35% | 1019 hPa | 0 mm | - | 724 W/m² | - |
| 1777839127 | 27.78° C | 33% | 1019.1 hPa | 0 mm | - | 728 W/m² | - |
| 1777838823 | 27.78° C | 34% | 1019.3 hPa | 0 mm | - | 755 W/m² | - |
| 1777838519 | 27.78° C | 34% | 1019.2 hPa | 0 mm | - | 749 W/m² | - |
| 1777838216 | 27.22° C | 35% | 1019.6 hPa | 0 mm | - | 772 W/m² | - |
| 1777837913 | 27.78° C | 34% | 1019.2 hPa | 0 mm | - | 764 W/m² | - |
| 1777837610 | 27.78° C | 34% | 1019.6 hPa | 0 mm | - | 764 W/m² | - |
| 1777837305 | 27.78° C | 34% | 1019.4 hPa | 0 mm | - | 782 W/m² | - |
| 1777837003 | 27.22° C | 33% | 1019.6 hPa | 0 mm | - | 790 W/m² | - |
| 1777836698 | 27.22° C | 33% | 1019.6 hPa | 0 mm | - | 821 W/m² | - |
| 1777836394 | 28.33° C | 32% | 1019.9 hPa | 0 mm | - | 806 W/m² | - |
| 1777836090 | 27.78° C | 34% | 1019.7 hPa | 0 mm | - | 828 W/m² | - |
| 1777835787 | 27.78° C | 34% | 1019.8 hPa | 0 mm | - | 816 W/m² | - |
| 1777835484 | 27.22° C | 37% | 1020 hPa | 0 mm | - | 842 W/m² | - |
| 1777835181 | 27.22° C | 33% | 1020 hPa | 0 mm | - | 888 W/m² | - |
| 1777834878 | 27.78° C | 34% | 1020 hPa | 0 mm | - | 212 W/m² | - |
| 1777834574 | 27.78° C | 34% | 1020.1 hPa | 0 mm | - | 865 W/m² | - |
* Rain latest hour (hover to see other rain measurements)
** Current wind speed in m/s (hover to see current wind gust speed)